Location: Clermont
(50.2608°N, 4.3172°E)
Time: 16:16:55
(UTC+00:00)

SWARM A - Pass Details

Date: 13 August 2020
Orbit: 430 x 434 km, 87.4° (Epoch: 18 September)

Event Time Altitude Azimuth Distance (km) Brightness Sun altitude
Rises 21:00:34 0° 360° (N) 2,426 8.8 -15.8°
Reaches altitude 10° 21:02:38 10° 4° (N) 1,551 7.6 -16.0°
Maximum altitude 21:05:58 62° 85° (E) 496 4.3 -16.4°
Enters shadow 21:06:50 43° 145° (SE) 624 4.5 -16.5°
